When you browse on this site, cookies collect data to enhance your experience and personalize the content and advertising you see.
Visit our Privacy Policy to learn more. By continuing to use the site, you agree to this use of cookies and data.
  • In Österreich
  • Länderverzeichnis
  • Für 7 Tage
  • Wassertemperatur
  • Wetterkarte
  • News
  • Widgets
  • user-avatar
    Anmelden

    Stündliche Wetter Annaba

    Heute, 15 Dezember, Sonntag

    Zeit Temperatur Niederschläge Wind Luftdruck Luftfeuchtigkeit
    00:00 +14°C° 0 mm 2 m/S 762 mmHg 81%
    01:00 +14°C° 0 mm 1 m/S 762 mmHg 79%
    02:00 +14°C° 0 mm 1 m/S 762 mmHg 77%
    03:00 +14°C° 0 mm 1 m/S 761 mmHg 76%
    04:00 +14°C° 0 mm 1 m/S 761 mmHg 74%
    05:00 +14°C° 0 mm 1 m/S 761 mmHg 74%
    06:00 +14°C° 0 mm 1 m/S 761 mmHg 74%
    07:00 +13°C° 0 mm 0 m/S 761 mmHg 74%
    08:00 +15°C° 0 mm 1 m/S 762 mmHg 70%
    09:00 +16°C° 0 mm 1 m/S 762 mmHg 67%
    10:00 +18°C° 0 mm 1 m/S 762 mmHg 64%
    11:00 +19°C° 0 mm 1 m/S 762 mmHg 61%
    12:00 +20°C° 0 mm 1 m/S 761 mmHg 57%
    13:00 +21°C° 0 mm 1 m/S 761 mmHg 54%
    14:00 +20°C° 0 mm 2 m/S 761 mmHg 58%
    15:00 +19°C° 0 mm 2 m/S 760 mmHg 62%
    16:00 +19°C° 0 mm 2 m/S 760 mmHg 66%
    17:00 +18°C° 0 mm 2 m/S 760 mmHg 71%
    18:00 +17°C° 0 mm 3 m/S 760 mmHg 75%
    19:00 +14°C° 0 mm 3 m/S 760 mmHg 79%
    20:00 +15°C° 0 mm 2 m/S 761 mmHg 78%
    21:00 +15°C° 0 mm 2 m/S 761 mmHg 77%
    22:00 +15°C° 0 mm 2 m/S 761 mmHg 76%
    23:00 +15°C° 0 mm 2 m/S 760 mmHg 73%

    Morgen, 16 Dezember, Montag

    Zeit Temperatur Niederschläge Wind Luftdruck Luftfeuchtigkeit
    00:00 +15°C° 0 mm 2 m/S 760 mmHg 70%
    01:00 +15°C° 0 mm 2 m/S 760 mmHg 67%
    02:00 +15°C° 0 mm 2 m/S 760 mmHg 65%
    03:00 +15°C° 0 mm 2 m/S 760 mmHg 63%
    04:00 +15°C° 0 mm 2 m/S 759 mmHg 62%
    05:00 +15°C° 0 mm 2 m/S 759 mmHg 61%
    06:00 +14°C° 0 mm 3 m/S 759 mmHg 61%
    07:00 +13°C° 0 mm 3 m/S 759 mmHg 60%
    08:00 +16°C° 0 mm 3 m/S 759 mmHg 59%
    09:00 +17°C° 0 mm 3 m/S 759 mmHg 58%
    10:00 +19°C° 0 mm 3 m/S 759 mmHg 56%
    11:00 +20°C° 0 mm 3 m/S 759 mmHg 53%
    12:00 +22°C° 0 mm 3 m/S 758 mmHg 50%
    13:00 +24°C° 0 mm 3 m/S 758 mmHg 47%
    14:00 +24°C° 0 mm 3 m/S 757 mmHg 48%
    15:00 +24°C° 0 mm 3 m/S 757 mmHg 50%
    16:00 +24°C° 0 mm 3 m/S 756 mmHg 51%
    17:00 +21°C° 0 mm 3 m/S 756 mmHg 52%
    18:00 +19°C° 0 mm 4 m/S 756 mmHg 52%
    19:00 +18°C° 0 mm 4 m/S 756 mmHg 53%
    20:00 +17°C° 0 mm 4 m/S 756 mmHg 54%
    21:00 +17°C° 0 mm 4 m/S 756 mmHg 55%
    22:00 +17°C° 0 mm 4 m/S 756 mmHg 56%
    23:00 +17°C° 0 mm 3 m/S 756 mmHg 56%

    übermorgen, 17 Dezember, Dienstag

    Zeit Temperatur Niederschläge Wind Luftdruck Luftfeuchtigkeit
    00:00 +16°C° 0 mm 3 m/S 756 mmHg 56%
    01:00 +16°C° 0 mm 3 m/S 756 mmHg 57%
    02:00 +16°C° 0 mm 3 m/S 756 mmHg 57%
    03:00 +16°C° 0 mm 3 m/S 755 mmHg 57%
    04:00 +16°C° 0 mm 3 m/S 755 mmHg 57%
    05:00 +16°C° 0 mm 3 m/S 755 mmHg 56%
    06:00 +16°C° 0 mm 3 m/S 755 mmHg 56%
    07:00 +16°C° 0 mm 2 m/S 754 mmHg 55%
    08:00 +17°C° 0 mm 3 m/S 754 mmHg 56%
    09:00 +17°C° 0 mm 3 m/S 754 mmHg 56%
    10:00 +18°C° 0 mm 4 m/S 754 mmHg 56%
    11:00 +19°C° 0 mm 4 m/S 754 mmHg 55%
    12:00 +19°C° 0 mm 4 m/S 753 mmHg 53%
    13:00 +20°C° 0 mm 4 m/S 752 mmHg 52%
    14:00 +21°C° 0 mm 5 m/S 752 mmHg 51%
    15:00 +21°C° 0 mm 5 m/S 752 mmHg 50%
    16:00 +21°C° 0 mm 5 m/S 751 mmHg 49%
    17:00 +20°C° 0 mm 5 m/S 751 mmHg 49%
    18:00 +19°C° 0 mm 5 m/S 751 mmHg 49%
    19:00 +17°C° 0 mm 6 m/S 751 mmHg 49%
    20:00 +17°C° 0 mm 6 m/S 751 mmHg 51%
    21:00 +16°C° 0 mm 5 m/S 751 mmHg 52%
    22:00 +16°C° 0 mm 5 m/S 751 mmHg 54%
    23:00 +16°C° 0 mm 5 m/S 750 mmHg 56%

    18 Dezember, Mittwoch

    Zeit Temperatur Niederschläge Wind Luftdruck Luftfeuchtigkeit
    00:00 +15°C° 0 mm 5 m/S 750 mmHg 59%
    01:00 +15°C° 0 mm 4 m/S 749 mmHg 62%
    02:00 +14°C° 0 mm 4 m/S 749 mmHg 62%
    03:00 +14°C° 0 mm 4 m/S 749 mmHg 62%
    04:00 +13°C° 0 mm 4 m/S 748 mmHg 62%
    05:00 +13°C° 0 mm 4 m/S 749 mmHg 64%
    06:00 +12°C° 0 mm 5 m/S 749 mmHg 65%
    07:00 +10°C° 0 mm 5 m/S 750 mmHg 66%
    08:00 +12°C° 0.1 mm 5 m/S 750 mmHg 65%
    09:00 +13°C° 0.1 mm 5 m/S 751 mmHg 63%
    10:00 +14°C° 0.1 mm 5 m/S 751 mmHg 61%
    11:00 +14°C° 0.1 mm 6 m/S 751 mmHg 63%
    12:00 +14°C° 0.1 mm 7 m/S 751 mmHg 66%
    13:00 +13°C° 0.1 mm 8 m/S 751 mmHg 68%
    14:00 +13°C° 1.1 mm 9 m/S 752 mmHg 72%
    15:00 +13°C° 1.1 mm 9 m/S 752 mmHg 75%
    16:00 +12°C° 1.1 mm 10 m/S 752 mmHg 79%
    17:00 +12°C° 3.8 mm 10 m/S 753 mmHg 80%
    18:00 +12°C° 3.8 mm 10 m/S 754 mmHg 81%
    19:00 +12°C° 3.8 mm 10 m/S 754 mmHg 83%
    20:00 +12°C° 1.3 mm 10 m/S 755 mmHg 80%
    21:00 +12°C° 1.3 mm 11 m/S 756 mmHg 78%
    22:00 +11°C° 1.3 mm 11 m/S 757 mmHg 75%
    23:00 +11°C° 0.1 mm 10 m/S 758 mmHg 74%

    19 Dezember, Donnerstag

    Zeit Temperatur Niederschläge Wind Luftdruck Luftfeuchtigkeit
    00:00 +11°C° 0.1 mm 10 m/S 758 mmHg 72%
    01:00 +11°C° 0.1 mm 9 m/S 758 mmHg 70%
    02:00 +11°C° 0 mm 8 m/S 759 mmHg 70%
    03:00 +10°C° 0 mm 8 m/S 759 mmHg 70%
    04:00 +10°C° 0 mm 7 m/S 760 mmHg 70%
    05:00 +10°C° 0 mm 6 m/S 760 mmHg 69%
    06:00 +9°C° 0 mm 5 m/S 760 mmHg 68%
    07:00 +10°C° 0 mm 4 m/S 761 mmHg 67%
    08:00 +11°C° 0 mm 4 m/S 761 mmHg 64%
    09:00 +13°C° 0 mm 3 m/S 761 mmHg 61%
    10:00 +14°C° 0 mm 3 m/S 762 mmHg 58%
    11:00 +16°C° 0 mm 3 m/S 761 mmHg 54%
    12:00 +18°C° 0 mm 3 m/S 761 mmHg 50%
    13:00 +19°C° 0 mm 3 m/S 761 mmHg 46%
    14:00 +19°C° 0 mm 2 m/S 760 mmHg 50%
    15:00 +19°C° 0 mm 2 m/S 760 mmHg 53%
    16:00 +19°C° 0 mm 2 m/S 759 mmHg 56%
    17:00 +18°C° 0 mm 2 m/S 760 mmHg 57%
    18:00 +17°C° 0 mm 3 m/S 760 mmHg 57%
    19:00 +16°C° 0 mm 3 m/S 760 mmHg 57%
    20:00 +16°C° 0 mm 3 m/S 760 mmHg 58%
    21:00 +14°C° 0 mm 3 m/S 760 mmHg 58%
    22:00 +14°C° 0 mm 3 m/S 760 mmHg 58%
    23:00 +14°C° 0 mm 3 m/S 760 mmHg 58%

    20 Dezember, Freitag

    Zeit Temperatur Niederschläge Wind Luftdruck Luftfeuchtigkeit
    00:00 +14°C° 0 mm 4 m/S 760 mmHg 58%
    01:00 +14°C° 0 mm 4 m/S 759 mmHg 58%
    02:00 +14°C° 0 mm 4 m/S 759 mmHg 58%
    03:00 +14°C° 0 mm 4 m/S 759 mmHg 59%
    04:00 +14°C° 0 mm 4 m/S 758 mmHg 60%
    05:00 +14°C° 0 mm 4 m/S 758 mmHg 60%
    06:00 +14°C° 0 mm 4 m/S 758 mmHg 60%
    07:00 +14°C° 0 mm 4 m/S 757 mmHg 59%
    08:00 +15°C° 0 mm 4 m/S 757 mmHg 58%
    09:00 +17°C° 0 mm 4 m/S 757 mmHg 57%
    10:00 +18°C° 0 mm 4 m/S 756 mmHg 56%
    11:00 +19°C° 0 mm 5 m/S 755 mmHg 53%
    12:00 +20°C° 0 mm 5 m/S 754 mmHg 51%
    13:00 +21°C° 0 mm 6 m/S 754 mmHg 48%
    14:00 +21°C° 0 mm 6 m/S 753 mmHg 48%
    15:00 +21°C° 0 mm 5 m/S 752 mmHg 48%
    16:00 +20°C° 0 mm 5 m/S 752 mmHg 48%
    17:00 +20°C° 0 mm 5 m/S 752 mmHg 48%
    18:00 +19°C° 0 mm 6 m/S 753 mmHg 49%
    19:00 +19°C° 0 mm 6 m/S 753 mmHg 49%
    20:00 +17°C° 0.3 mm 6 m/S 753 mmHg 60%
    21:00 +16°C° 0.3 mm 6 m/S 754 mmHg 71%
    22:00 +15°C° 0.3 mm 6 m/S 754 mmHg 83%
    23:00 +15°C° 0 mm 6 m/S 754 mmHg 80%
    Mehr zeigen